Flag for Colombia Weather past 2 weeks in Medellin, Colombia

Now
70 °F

Broken clouds.


Feels Like: 70 °F
Forecast: 67 / 80 °F
Wind: 7 mph from Southeast

Location: Rionegro / J. M. Cordova

Current Time: May 27, 2015 at 3:34:50 PM

Latest Report: May 27, 2015 at 3:00 PM


Visibility: N/A

Pressure: 30.19 "Hg

Humidity: 53%

Dew point: 52 °F

Location of MedellinLocation

Historic Weather in Medellin — Graph

°F

Medellin temperature yesterday

Maximum temperature yesterday: 73 °F (at 1:00 PM)
Minimum temperature yesterday: 55 °F (at 6:00 AM)
Average temperature yesterday: 63 °F

Past Weeks' High & Low Weather Summary

 TemperatureHumidityPressure
High77 °F (May 17, 6:00 PM)100% (May 16, 4:00 AM)30.40 "Hg (May 16, 4:00 AM)
Low54 °F (May 23, 5:00 AM)38% (May 12, 2:00 PM)30.05 "Hg (May 17, 6:00 PM)
Average64 °F78%30.29 "Hg
* Reported May 12 2:00 PM — May 27 2:00 PM, Medellin, Weather by CustomWeather, © 2015

Note: Actual official high and low records may vary slightly from our data, if they occured in-between our weather recording intervals... More about our weather records

Advertising

Medellin weather history for previous 24 hours

 ConditionsComfort  
Time TempWeatherWind HumidityBarometerVisibility
2:00 PM
Wed, May 27
70 °FPartly sunny.7 mph57%30.23 "HgN/A
1:00 PM70 °FScattered showers. Broken clouds.9 mph60%30.26 "HgN/A
12:00 PM66 °FScattered showers. Scattered clouds.5 mph78%30.30 "HgN/A
11:00 AM63 °FDrizzle. Partly sunny.7 mph88%30.31 "HgN/A
10:00 AM66 °FScattered clouds.5 mph73%30.31 "HgN/A
9:00 AM61 °FBroken clouds.No wind88%30.32 "HgN/A
8:00 AM70 °FSnow. Scattered clouds.No wind78%30.16 "Hg2 mi
7:00 AM55 °FBroken clouds.No wind100%30.29 "Hg2 mi
6:00 AM55 °FMore clouds than sun.3 mph100%30.27 "Hg1 mi
5:00 AM57 °FSnow. Passing clouds.No wind100%30.23 "Hg5 mi
4:00 AM57 °FPassing clouds.No wind100%30.24 "HgN/A
3:00 AM57 °FDrizzle. Mostly cloudy.No wind100%30.26 "Hg4 mi
2:00 AM59 °FDrizzle. Mostly cloudy.2 mph100%30.26 "Hg4 mi
1:00 AM61 °FDrizzle. Mostly cloudy.3 mph94%30.28 "Hg4 mi
12:00 AM61 °FThunderstorms. Passing clouds.No wind94%30.29 "Hg4 mi
11:00 PM
Tue, May 26
63 °FPassing clouds.5 mph94%30.30 "Hg5 mi
10:00 PM63 °FPassing clouds.5 mph88%30.30 "HgN/A
9:00 PM63 °FPartly cloudy.No wind88%30.29 "HgN/A
8:00 PM64 °FPassing clouds.6 mph83%30.28 "HgN/A
7:00 PM64 °FPassing clouds.No wind83%30.26 "HgN/A
6:00 PM64 °FBroken clouds.5 mph83%30.24 "HgN/A
5:00 PM66 °FBroken clouds.5 mph73%30.23 "HgN/A
4:00 PM68 °FBroken clouds.7 mph64%30.23 "HgN/A
3:00 PM70 °FScattered clouds.12 mph60%30.22 "HgN/A
Weather by CustomWeather, © 2015

See weather overviewHow to use our weather pages